Skip Page Navigation
NASA JPL Caltech
NASA Logo - Jet Propulsion Laboratory + View the NASA Portal
+ Center for Near-Earth Object Studies
JPL Home Earth Solar System Stars & Galaxies Technology
JPL Solar System Dynamics
BODIES ORBITS EPHEMERIDES TOOLS PHYSICAL DATA DISCOVERY FAQ SITE MAP
IMPORTANT: The SSD Announcement email list is now available. Major changes are coming in the near future, including possible hostname and/or URL changes. To be notified of such changes, subscribe to this email list.

Please visit this page for more details.


JPL Small-Body Database Browser
Search: [ help ]  
1063 Aquilegia (1925 XA)
Classification: Main-belt Asteroid          SPK-ID: 2001063
Ephemeris | Orbit Diagram | Orbital Elements | Mission Design | Physical Parameters | Discovery Circumstances ]

[ hide orbit diagram ]

For accurate long-term ephemerides, please instead use our Horizons system.This orbit viewer was implemented using two-body methods, and hence should not be used for determining accurate long-term trajectories (over several years or decades) or planetary encounter circumstances.


[ revert to old Java-based viewer ]

Orbital Elements at Epoch 2458600.5 (2019-Apr-27.0) TDB
Reference: JPL 35 (heliocentric ecliptic J2000)
 Element Value Uncertainty (1-sigma)   Units 
e .04021164981364428 3.6225e-08  
a 2.314793839680852 6.4394e-09 au
q 2.221712160408825 8.4374e-08 au
i 5.973845839590912 3.8649e-06 deg
node 95.31921541261342 3.7168e-05 deg
peri 107.6815724057918 6.0839e-05 deg
M 51.26326662445489 4.8296e-05 deg
tp 2458417.323110505717
(2018-Oct-25.82311051)
0.00017255 TDB
period 1286.37296372533
3.52
5.3678e-06
1.47e-08
d
yr
n .2798566280166846 1.1678e-09 deg/d
Q 2.407875518952879 6.6984e-09 au
  Orbit Determination Parameters
   # obs. used (total)      2664  
   data-arc span      41354 days (113.22 yr)  
   first obs. used      1906-05-29  
   last obs. used      2019-08-18  
   planetary ephem.      DE431  
   SB-pert. ephem.      SB431-N16  
   condition code      0  
   norm. resid. RMS      .4267  
   source      ORB  
   producer      Otto Matic  
   solution date      2019-Sep-23 19:14:32  

Additional Information
 Earth MOID = 1.2247 au 
 Jupiter MOID = 2.56386 au 
 T_jup = 3.574 
[ show covariance matrix ]

Ephemeris | Orbit Diagram | Orbital Elements | Mission Design | Physical Parameters | Discovery Circumstances ]

Physical Parameter Table
Parameter Symbol Value Units Sigma Reference Notes
absolute magnitude H 11.38   n/a IRAS-A-FPA-3-RDR-IMPS-V6.0 IRAS observations used: 3
diameter diameter 11.288 km 0.540 urn:nasa:pds:neowise_diameters_albedos::2.0[mainbelt] (http://adsabs.harvard.edu/abs/2012ApJ...759L...8M)  
rotation period rot_per 5.792 h n/a LCDB (Rev. 2019-January); Warner et al., 2009 Published Reference List:
[Binzel, R.P. (1987) Icarus 72, 135-208.]
[Behrend, R. (2004) Observatoire de Geneve web site, http://obswww.unige.ch/~behrend/page_cou.html]
[Stephens, R.D. (2018) Minor Planet Bull. 45, 299-301.]
geometric albedo albedo 0.389   0.042 urn:nasa:pds:neowise_diameters_albedos::2.0[mainbelt] (http://adsabs.harvard.edu/abs/2012ApJ...759L...8M)  
B-V BV 0.850   0.040 EAR-A-5-DDR-UBV-MEAN-VALUES-V1.2 #obs=1; phase=23.38 deg.
U-B UB 0.360   0.060 EAR-A-5-DDR-UBV-MEAN-VALUES-V1.2 #obs=1; phase=23.38 deg.

1063 Aquilegia (1925 XA)          Discovered 1925-Dec-06 by Reinmuth, K. at Heidelberg
Reference: DISCOVERY.DBLast Updated: 2003-08-29

Alternate Designations
 1925 XA = 1948 EP = 1956 SK = A906 KA = A910 NC = A920 GB = A923 CA 
Ephemeris | Orbit Diagram | Orbital Elements | Mission Design | Physical Parameters | Discovery Circumstances ]
ABOUT SSD CREDITS/AWARDS PRIVACY/COPYRIGHT GLOSSARY LINKS
FirstGov 2019-Oct-14 07:05 UT
(server date/time)  
NASA Home Page
Site Manager:   Ryan S. Park
Webmaster  Alan B. Chamberlin